Location: *
(42.3358°S, 135.5482°W)
Time: 21:45:36
(UTC+00:00)

Daily predictions for brighter satellites

Satellite Brightness Start Highest point End
(mag) Time Altitude Azimuth Time Altitude Azimuth Time Altitude Azimuth
Cosmos 1603 4.5 13:07:14 49° E 13:07:14 49° E 13:12:05 10° SE
SL-8 Rocket 4.2 13:11:47 68° E 13:11:47 68° E 13:17:56 10° SSE
USA 281 4.5 13:06:45 10° SE 13:12:49 37° ENE 13:18:50 10° N
Cosmos 2341 Rocket 4.1 13:17:33 57° NNE 13:18:48 74° E 13:25:05 10° S
ATLAS 2AS CENTAUR R/B 3.6 13:16:56 15° N 13:22:32 48° ENE 13:29:29 10° SE
Cosmos 2218 Rocket 4.2 13:17:32 10° N 13:23:50 70° E 13:30:07 10° SSE
ATLAS 3B R/B 4.4 13:29:48 15° S 13:33:13 23° SE 13:38:15 10° E
Cosmos 1959 Rocket 4.4 13:34:25 10° N 13:40:42 88° E 13:47:09 10° S
COSMOS 2455 3.2 13:44:57 46° NNW 13:44:57 46° NNW 13:49:32 10° N
Cosmos 304 Rocket 4.3 13:44:14 44° SSE 13:45:23 57° ESE 13:50:03 10° NNE
Cosmos 2366 rocket 3.9 13:41:45 10° NNW 13:48:05 71° W 13:54:27 10° S
Cosmos 921 Rocket 3.2 13:48:36 70° ENE 13:48:36 70° ENE 13:52:41 10° NNE
Cosmos 1025 Rocket 3.4 13:48:22 54° SE 13:48:58 61° E 13:53:10 10° NNE
BREEZE-M DEB (TANK) 4.0 13:47:31 47° WNW 13:49:56 76° SSW 13:53:46 10° ESE
Meteor 1-11 4.3 13:56:56 57° WNW 13:56:56 57° WNW 14:02:06 10° N
Meteor 2-15 4.3 13:52:50 10° NNW 13:58:51 61° W 14:04:57 10° S
Cosmos 1484 Rocket 3.8 14:03:54 10° NE 14:07:08 39° ESE 14:09:21 18° SSE
ARIANE 6 FM1 Upper Stage 4.2 14:08:51 25° NNW 14:08:51 25° NNW 14:11:11 10° N
SL-16 R/B 2.6 14:02:07 10° SSE 14:08:29 81° ENE 14:14:47 10° NNW
Cosmos 371 Rocket 3.2 14:07:10 34° SSW 14:09:18 86° ESE 14:14:07 10° NNE
Cosmos 405 Rocket 3.4 14:13:23 33° NNE 14:13:23 33° NNE 14:15:09 10° NNE
Cosmos 1821 Rocket 3.8 14:06:47 10° NNW 14:12:51 68° W 14:19:03 10° S
Cosmos 1656 3.8 14:09:34 18° SSW 14:13:47 72° ESE 14:19:16 10° NNE
Cosmos 1900 4.4 14:16:33 45° WNW 14:17:44 57° SW 14:22:47 10° SSE
IRS-1D 4.4 14:13:16 10° NNW 14:16:42 31° NW 14:16:42 31° NW
ISS -2.9 14:19:16 42° S 14:19:16 42° S 14:22:02 10° SE
SL-4 R/B 2.9 14:19:44 27° N 14:19:44 27° N 14:21:43 10° NNE
Cosmos 1727 Rocket 4.0 14:14:36 10° S 14:21:02 89° WNW 14:27:25 10° N
Cosmos 1269 Rocket 4.5 14:21:41 37° WNW 14:21:41 37° WNW 14:26:27 10° NNW
CZ-4 R/B 4.2 14:17:39 10° N 14:22:26 45° W 14:23:38 38° WSW
Meteor 2-15 Rocket 4.4 14:16:28 10° NNW 14:22:27 56° WSW 14:28:31 10° S
SJ 16-02 1.4 14:20:30 21° SSW 14:23:24 78° ESE 14:27:42 10° NNE
Meteor 2-21 Rocket 4.3 14:17:31 10° S 14:23:39 79° W 14:29:43 10° N
MOS 1 Rocket 3.6 14:21:20 10° N 14:25:39 43° W 14:26:38 38° WSW
DELTA 2 R/B (1) 4.1 14:23:06 24° NW 14:26:15 53° NNE 14:31:41 10° E
BREEZE-M DEB 4.2 14:26:05 31° WNW 14:26:43 32° WNW 14:29:39 10° N
CBERS-1 4.1 14:21:57 10° NNE 14:27:05 79° ESE 14:32:18 10° SSW
Cosmos 1833 Rocket 3.4 14:22:25 10° N 14:27:55 56° ENE 14:33:29 10° SSE
USA 32 4.0 14:23:36 10° NNW 14:28:47 61° W 14:34:02 10° S
Cosmos 1867 3.6 14:27:30 22° NW 14:30:56 59° SW 14:36:19 10° SSE
Cosmos 1190 Rocket 4.3 14:31:22 10° SSW 14:36:41 68° ESE 14:41:57 10° NNE
SMAP 3.0 14:32:16 10° N 14:36:57 80° WNW 14:41:43 10° SSW
ARIANE 5 R/B 3.5 14:32:19 10° NE 14:37:04 46° ESE 14:41:54 10° S
Cosmos 2360 4.2 14:34:20 12° SSW 14:39:41 81° WNW 14:45:24 10° NNE
Meteor 2-16 Rocket 4.4 14:36:06 10° SSW 14:42:16 66° W 14:48:23 10° N
Cosmos 1934 Rocket 4.3 14:36:57 10° N 14:43:17 76° E 14:49:44 10° S
Cosmos 407 Rocket 4.0 14:45:46 17° SW 14:49:24 40° WNW 14:54:18 10° N
Cosmos 1954 Rocket 4.2 14:47:15 10° SSW 14:52:39 79° ESE 14:57:58 10° NNE
Cosmos 1420 Rocket 4.2 14:49:38 10° NW 14:54:39 48° WSW 14:59:42 10° S
YAOGAN 1 4.0 14:52:14 10° NE 14:56:13 39° ESE 15:00:15 10° S
Cosmos 1371 Rocket 4.0 14:51:12 10° NNW 14:56:24 89° ENE 15:01:39 10° SSE
CZ-4C R/B 3.3 14:48:12 10° NNW 14:57:19 82° ENE 15:04:58 10° SE
USA 281 3.5 14:51:07 10° SSE 14:57:20 45° WSW 15:03:31 10° NW
USA 229 DEB 3.4 14:55:26 10° SW 15:01:55 89° SE 15:07:43 10° NE
USA 229 3.4 14:55:29 10° SW 15:01:58 88° SE 15:07:46 10° NE
USA 215 4.3 14:57:46 10° E 15:03:45 38° SSE 15:09:44 10° SW
Meteor 1-28 Rocket 3.3 15:03:16 10° S 15:06:22 36° WSW 15:09:25 10° NW
Cosmos 1975 Rocket 3.1 15:02:49 10° S 15:07:21 90° SE 15:11:50 10° N
Cosmos 1315 Rocket 3.6 15:05:06 10° NW 15:08:24 27° WSW 15:11:46 10° SSW
Cosmos 44 Rocket 3.1 15:05:37 10° NW 15:10:20 82° WSW 15:15:01 10° SSE
USA 307 3.1 15:10:48 16° SSW 15:10:48 16° SSW 15:11:46 10° S
ATLAS 2AS CENTAUR R/B 3.2 15:06:49 10° WNW 15:13:34 42° SW 15:20:32 10° SSE
Cosmos 1869 4.5 15:12:57 10° WNW 15:15:18 17° WSW 15:17:42 10° SSW
Cosmos 676 Rocket 4.1 15:10:44 10° SSW 15:16:07 89° W 15:21:28 10° NNE
Cosmos 2251 Rocket 3.7 15:11:43 10° SSW 15:16:49 51° WNW 15:21:53 10° N
Resurs 01 Rocket 3.2 15:13:29 10° NE 15:17:33 36° ESE 15:21:40 10° S
AQUARIUS 4.2 15:13:45 10° N 15:18:06 56° W 15:22:31 10° SSW
Cosmos 1300 Rocket 4.3 15:15:19 10° NW 15:19:08 29° WSW 15:23:00 10° SSW
Gbstr 26 Del rocket 3.9 15:14:51 12° SW 15:20:12 89° SE 15:27:08 10° NE
UNK 4.1 15:18:10 10° S 15:22:36 43° WSW 15:26:57 10° NW
ATLAS 3B R/B 2.6 15:18:15 10° SW 15:24:39 89° SE 15:31:27 10° NNE
Timation 1 Rocket 4.4 15:21:26 10° NNW 15:27:25 87° ENE 15:33:28 10° SSE
Cosmos 2082 Rocket 4.2 15:23:03 10° NNE 15:28:02 33° ENE 15:33:03 10° SE
Cosmos 2084 Rocket 4.5 15:29:46 10° SSW 15:33:43 40° SE 15:37:33 10° ENE
Cosmos 1697 Rocket 2.7 15:28:45 10° SSW 15:34:28 77° WNW 15:40:08 10° NNE
Cosmos 332 Rocket 4.0 15:30:48 10° SSW 15:35:36 55° WNW 15:40:22 10° N
Cosmos 1862 3.7 15:33:35 10° SSW 15:37:00 36° W 15:40:22 10° NNW
Cosmos 1110 Rocket 4.0 15:32:20 10° NNW 15:37:30 89° ENE 15:42:45 10° SSE
COSMO-SKYMED 1 2.7 15:36:17 10° SSE 15:40:30 77° ENE 15:44:38 10° N
